Home > Weather > Trois-Rivieres > Past weeks

Flag for Canada Weather for the Past 2 Weeks in Trois-Rivieres, Quebec, Canada

Now
33 °F

Chilly.


Feels Like: 21 °F
Forecast: 13 / 29 °F
Wind: 21 mph from Southwest

Location: Trois Rivieres

Current Time: Feb 7, 2016 at 1:33:37 AM

Latest Report: Feb 7, 2016 at 1:00 AM


Visibility: N/A

Pressure: 29.93 "Hg

Humidity: 83%

Dew point: 28 °F

Location of Trois-RivieresLocation

Historic Weather in Trois-Rivieres — Graph

°F

Trois-Rivieres Temperature Yesterday

Maximum temperature yesterday: 33 °F (at 11:00 PM)
Minimum temperature yesterday: 13 °F (at 12:00 AM)
Average temperature yesterday: 23 °F

High & Low Weather Summary for the Past Weeks

 TemperatureHumidityPressure
High42 °F (Feb 1, 10:00 AM)100% (Jan 26, 2:00 PM)30.44 "Hg (Jan 26, 2:00 PM)
Low2 °F (Jan 24, 7:00 AM)52% (Jan 27, 2:00 PM)29.33 "Hg (Feb 1, 7:00 AM)
Average24 °F84%29.93 "Hg
* Reported Midnight between Jan 22 and Jan 23 — Midnight between Feb 6 and Feb 7, Trois-Rivieres, Weather by CustomWeather, © 2016

Note: Actual official high and low records may vary slightly from our data, if they occured in-between our weather recording intervals... More about our weather records

Advertising

Trois-Rivieres Weather History for the Previous 24 Hours

 ConditionsComfort  
Time TempWeatherWind HumidityBarometerVisibility
12:00 AM
Sun, Feb 7
31 °FChilly.21 mph88%29.95 "HgN/A
11:00 PM
Sat, Feb 6
33 °FChilly.22 mph83%29.96 "HgN/A
10:00 PM31 °FChilly.22 mph91%29.97 "HgN/A
9:00 PM32 °FChilly.21 mph94%29.99 "HgN/A
8:00 PM32 °FChilly.14 mph94%30.02 "HgN/A
7:00 PM31 °FChilly.16 mph96%30.03 "HgN/A
6:00 PM30 °FChilly.13 mph95%30.03 "HgN/A
5:00 PM29 °FChilly.7 mph100%30.05 "HgN/A
4:00 PM28 °FChilly.7 mph96%30.05 "HgN/A
3:00 PM26 °FChilly.6 mph94%30.07 "HgN/A
2:00 PM25 °FChilly.3 mph91%30.09 "HgN/A
1:00 PM24 °FCold.7 mph92%30.12 "HgN/A
12:00 PM23 °FCold.3 mph90%30.15 "HgN/A
11:00 AM22 °FCold.5 mph90%30.19 "HgN/A
10:00 AM22 °FCold.6 mph80%30.21 "HgN/A
9:00 AM18 °FCold.2 mph85%30.21 "HgN/A
8:00 AM15 °FCold.5 mph87%30.21 "HgN/A
7:00 AM16 °FCold.2 mph89%30.19 "HgN/A
6:00 AM15 °FCold.5 mph88%30.19 "HgN/A
5:00 AM16 °FCold.2 mph88%30.18 "HgN/A
4:00 AM15 °FCold.3 mph93%30.18 "HgN/A
3:00 AM15 °FCold.5 mph92%30.18 "HgN/A
2:00 AM17 °FCold.6 mph97%30.19 "HgN/A
1:00 AM14 °FCold.2 mph96%30.19 "HgN/A
Weather by CustomWeather, © 2016

See weather overviewHow to use our weather pages